Weather in Bar

Montenegro     42°05′16″N   19°06′28″E
temp.,
°C
wind,
m/s
gust,
m/s
humid.,
%
clouds,
%
prec.,
mm/h
press.,
hPa
HPBL,
m
22 october, fri
fri2223:00+19ssw4371100 0.9 1020675
02:00+19se4473100 1.2 1019496
05:00+18ese6678100 0.0 1019442
08:00+18ese5682100 0.1 1019454
11:00+19se4478100 0.0 1020422
14:00+19se4572100 0.0 1019395
17:00+19se5773100 0.1 1018531
20:00+20ese5675100 0.2 1019579
23 october, sat
sat2323:00+19ese5575100 0.3 1020287
02:00+20se567648 0.6 1019618
05:00+19ene44745 0.6 1019326
08:00+19e457389 0.6 1019248
11:00+20ese337199 0.1 1020198
14:00+19sse3374100 1.0 1020190
17:00+19ese3377100 1.2 1020157
20:00+20ese4475100 1.3 1021196
24 october, sun
sun2423:00+20e3373100 0.2 1021116
02:00+20ene3373100 0.3 1021121
05:00+19ene337495 0.1 1021156
08:00+17ene5572100 0.1 1022225
11:00+18ene4460100 0.0 1023392
14:00+20ne345098 0.0 1022682
17:00+19ene335441 0.0 1022179
20:00+17ne665551 0.0 1023359
25 october, mon
mon2523:00+15ne66570 0.0 1023292
02:00+14ne66560 0.0 1022239
05:00+14ene54530 0.0 1022208
08:00+14ne44470 0.0 1022197
11:00+16e22360 0.0 1022349
14:00+18s0134100 0.0 1021418
17:00+18nnw2239100 0.0 1021425
20:00+18nne1140100 0.0 1021373
26 october, tue
tue2623:00+18n1143100 0.0 1021343
02:00+17wnw1246100 0.0 1021574
05:00+17wsw2247100 0.0 1021852
08:00+17n2250100 0.0 1020508
11:00+16n3350100 0.1 1021516
14:00+16n4456100 0.1 1020426
17:00+17n3356100 0.0 1019365
20:00+17n3358100 0.0 1020319